User: anonymous   Login
Location: Unspecified
(0.0000°N, 0.0000°E)
Time: 22:09:06
(UTC+00:00)
Language:

Explorer 11/Cluster Stage 4 - Orbit

View from above orbital plane
View from above orbital plane
View from above satellite
View from above satellite

Ground track
Ground track

The orbit data is extracted from the following two-line orbital elements,

1 00107U 61013A   15148.20497262  .00000714  00000-0  77903-4 0  9992
2 00107 028.7857 163.4619 0555239 138.9160 299.8890 14.06886265705164
Epoch (UTC): 28 May 2015 04:55:09
Eccentricity: 0.0555239
inclination: 28.7857°
perigee height: 467 km
apogee height: 1272 km
right ascension of ascending node: 163.4619°
argument of perigee: 138.9160°
revolutions per day: 14.06886265
mean anomaly at epoch: 299.8890°
orbit number at epoch: 70516

The dashed part of the orbit path shows where the satellite is in the earth's shadow,  

DLR